Weather History for KVES - December, 2013

Change the Weather History Date:

Tuesday, December 24, 2013

  Actual Average (KDAY) Record (KDAY)
Temperature  
Mean Temperature 14 °F 29 °F  
Max Temperature 21 °F 36 °F 66 °F (1964)
Min Temperature 8 °F 22 °F -15 °F (1983)
Degree Days  
Heating Degree Days 50 36  
Month to date heating degree days 791  
Since 1 July heating degree days 1902  
Cooling Degree Days 0 0  
Month to date cooling degree days 0  
Year to date cooling degree days 891  
Moisture  
Dew Point 11 °F    
Average Humidity 85    
Maximum Humidity 100    
Minimum Humidity 73    
Precipitation  
Precipitation 0.00 in 0.11 in 1.77 in (1945)
Month to date precipitation 2.41  
Year to date precipitation 40.34  
Snow  
Snow 0.00 in 0.20 in 1.90 in (1960)
Month to date snowfall 3.1  
Since 1 July snowfall 4.1  
Snow Depth -    
Sea Level Pressure  
Sea Level Pressure 30.45 in    
Wind  
Wind Speed 10 mph (WNW)    
Max Wind Speed 18 mph    
Max Gust Speed 23 mph    
Visibility 10 miles    
Events Snow    
T = Trace of Precipitation, MM = Missing Value Source: NWS Daily Summary

Daily Weather History Graph

Daily Weather History Graph

Search for Another Location

Airport or City:

Trip Planner

Search our weather history database for the weather conditions in past years. The results will help you decide how hot, cold, wet, or windy it might be!

Date:

Astronomy

Dec. 24, 2013 Rise Set
Actual Time 7:58 AM EST 5:17 PM EST
Civil Twilight 7:27 AM EST 5:47 PM EST
Nautical Twilight 6:53 AM EST 6:22 PM EST
Astronomical Twilight 6:20 AM EST 6:55 PM EST
Moon No Moon Rise 11:51 AM EST (12/24)
Length of Visible Light 10h 20m
Length of Day
9h 18m
Waning Gibbous, 59% of the Moon is Illuminated
Dec 24
Waning Gibbous
Dec 25
Last Quarter
Jan 1
New
Jan 7
First Quarter
Jan 15
Full

Hourly Weather History & Observations

Time (EST) Temp. Windchill Dew Point Humidity Pressure Visibility Wind Dir Wind Speed Gust Speed Precip Events Conditions
12:15 AM 21.2 °F 11.7 °F 17.6 °F 86% 30.34 in 10.0 mi WNW 8.1 mph - N/A   Mostly Cloudy
12:35 AM 21.2 °F 10.9 °F 17.6 °F 86% 30.33 in 10.0 mi WNW 9.2 mph - N/A   Mostly Cloudy
12:55 AM 19.4 °F 8.6 °F 17.6 °F 93% 30.34 in 10.0 mi WNW 9.2 mph 18.4 mph N/A   Overcast
1:15 AM 19.4 °F 6.6 °F 17.6 °F 93% 30.34 in 10.0 mi WNW 12.7 mph 17.3 mph N/A Snow Light Snow
1:35 AM 19.4 °F 5.5 °F 14.0 °F 80% 30.34 in 10.0 mi WNW 15.0 mph 19.6 mph N/A Snow Light Snow
1:55 AM 17.6 °F 2.7 °F 14.0 °F 86% 30.35 in 10.0 mi WNW 16.1 mph 23.0 mph N/A Snow Light Snow
2:15 AM 17.6 °F 1.7 °F 12.2 °F 79% 30.36 in 10.0 mi WNW 18.4 mph 23.0 mph N/A   Overcast
2:35 AM 14.0 °F 0.5 °F 10.4 °F 86% 30.36 in 10.0 mi WNW 11.5 mph 19.6 mph N/A   Scattered Clouds
2:55 AM 14.0 °F -0.2 °F 8.6 °F 79% 30.37 in 10.0 mi WNW 12.7 mph 20.7 mph N/A   Clear
3:15 AM 12.2 °F -1.0 °F 6.8 °F 79% 30.38 in 10.0 mi WNW 10.4 mph - N/A   Clear
3:35 AM 12.2 °F -2.5 °F 8.6 °F 85% 30.38 in 10.0 mi WNW 12.7 mph 19.6 mph N/A   Clear
3:55 AM 12.2 °F -3.7 °F 8.6 °F 85% 30.38 in 10.0 mi WNW 15.0 mph - N/A   Scattered Clouds
4:15 AM 12.2 °F -2.5 °F 8.6 °F 85% 30.38 in 10.0 mi WNW 12.7 mph 16.1 mph N/A Snow Light Snow
4:35 AM 12.2 °F -4.8 °F 8.6 °F 85% 30.38 in 10.0 mi WNW 17.3 mph - N/A   Overcast
4:55 AM 12.2 °F -4.3 °F 6.8 °F 79% 30.38 in 10.0 mi West 16.1 mph 20.7 mph N/A   Mostly Cloudy
5:15 AM 10.4 °F -4.8 °F 6.8 °F 85% 30.39 in 10.0 mi West 12.7 mph 17.3 mph N/A   Mostly Cloudy
5:35 AM 10.4 °F -4.1 °F 5.0 °F 79% 30.39 in 10.0 mi West 11.5 mph 21.9 mph N/A   Mostly Cloudy
5:55 AM 12.2 °F -2.5 °F 5.0 °F 73% 30.39 in 10.0 mi WNW 12.7 mph 21.9 mph N/A   Overcast
6:15 AM 12.2 °F -0.2 °F 6.8 °F 79% 30.39 in 10.0 mi WNW 9.2 mph - N/A   Overcast
6:35 AM 12.2 °F -2.5 °F 8.6 °F 85% 30.40 in 10.0 mi WNW 12.7 mph - N/A   Overcast
6:55 AM 12.2 °F -5.3 °F 8.6 °F 85% 30.41 in 10.0 mi WNW 18.4 mph - N/A Snow Light Snow
7:15 AM 12.2 °F -4.8 °F 8.6 °F 85% 30.42 in 10.0 mi NW 17.3 mph 21.9 mph N/A   Overcast
7:35 AM 10.4 °F -6.0 °F 8.6 °F 92% 30.42 in 10.0 mi NW 15.0 mph 21.9 mph N/A   Overcast
7:55 AM 10.4 °F -5.4 °F 6.8 °F 85% 30.44 in 10.0 mi WNW 13.8 mph - N/A   Overcast
8:15 AM 10.4 °F -4.1 °F 5.0 °F 79% 30.44 in 10.0 mi NW 11.5 mph - N/A   Scattered Clouds
8:35 AM 8.6 °F -8.3 °F 5.0 °F 85% 30.46 in 10.0 mi WNW 15.0 mph 20.7 mph N/A   Clear
8:55 AM 8.6 °F -7.0 °F 5.0 °F 85% 30.47 in 10.0 mi NW 12.7 mph - N/A   Scattered Clouds
9:15 AM 10.4 °F -4.8 °F 5.0 °F 79% 30.47 in 10.0 mi WNW 12.7 mph - N/A   Mostly Cloudy
9:35 AM 10.4 °F -4.8 °F 5.0 °F 79% 30.48 in 7.0 mi West 12.7 mph 16.1 mph N/A   Mostly Cloudy
9:55 AM 10.4 °F -4.8 °F 5.0 °F 79% 30.49 in 10.0 mi West 12.7 mph - N/A   Mostly Cloudy
10:15 AM 10.4 °F -4.1 °F 6.8 °F 85% 30.49 in 10.0 mi WNW 11.5 mph - N/A   Mostly Cloudy
10:35 AM 12.2 °F 0.7 °F 8.6 °F 85% 30.49 in 10.0 mi WNW 8.1 mph - N/A   Mostly Cloudy
10:55 AM 12.2 °F -0.2 °F 8.6 °F 85% 30.50 in 10.0 mi West 9.2 mph 17.3 mph N/A   Mostly Cloudy
11:15 AM 12.2 °F -1.0 °F 8.6 °F 85% 30.50 in 10.0 mi West 10.4 mph - N/A   Mostly Cloudy
11:35 AM 12.2 °F -1.0 °F 8.6 °F 85% 30.50 in 10.0 mi WNW 10.4 mph - N/A   Mostly Cloudy
11:55 AM 12.2 °F 0.7 °F 8.6 °F 85% 30.50 in 10.0 mi WNW 8.1 mph - N/A   Mostly Cloudy
12:15 PM 14.0 °F 0.5 °F 8.6 °F 79% 30.49 in 10.0 mi WNW 11.5 mph - N/A Snow Light Snow
12:35 PM 14.0 °F 0.5 °F 10.4 °F 86% 30.50 in 10.0 mi NW 11.5 mph - N/A   Mostly Cloudy
12:55 PM 15.8 °F 2.7 °F 10.4 °F 79% 30.50 in 10.0 mi West 11.5 mph - N/A Snow Light Snow
1:15 PM 15.8 °F 5.1 °F 12.2 °F 86% 30.49 in 10.0 mi West 8.1 mph - N/A Snow Light Snow
1:35 PM 15.8 °F 6.1 °F 10.4 °F 79% 30.49 in 10.0 mi WNW 6.9 mph - N/A Snow Light Snow
1:55 PM 17.6 °F 8.2 °F 12.2 °F 79% 30.49 in 10.0 mi NW 6.9 mph - N/A Snow Light Snow
2:15 PM 17.6 °F 6.4 °F 12.2 °F 79% 30.50 in 10.0 mi West 9.2 mph - N/A Snow Light Snow
2:35 PM 17.6 °F 7.3 °F 12.2 °F 79% 30.50 in 10.0 mi West 8.1 mph - N/A   Overcast
2:55 PM 17.6 °F 10.7 °F 12.2 °F 79% 30.50 in 10.0 mi West 4.6 mph - N/A Snow Light Snow
3:15 PM 17.6 °F 9.3 °F 12.2 °F 79% 30.50 in 10.0 mi West 5.8 mph - N/A Snow Light Snow
3:35 PM 17.6 °F 12.3 °F 12.2 °F 79% 30.49 in 10.0 mi NW 3.5 mph - N/A   Scattered Clouds
3:55 PM 19.4 °F 11.5 °F 12.2 °F 74% 30.49 in 10.0 mi West 5.8 mph - N/A   Scattered Clouds
4:15 PM 19.4 °F 12.8 °F 12.2 °F 74% 30.49 in 10.0 mi West 4.6 mph - N/A   Clear
4:35 PM 19.4 °F 12.8 °F 12.2 °F 74% 30.50 in 10.0 mi West 4.6 mph - N/A   Clear
4:55 PM 17.6 °F 12.3 °F 12.2 °F 79% 30.51 in 10.0 mi WSW 3.5 mph - N/A   Clear
5:15 PM 17.6 °F 12.3 °F 12.2 °F 79% 30.51 in 10.0 mi West 3.5 mph - N/A   Clear
5:35 PM 17.6 °F - 12.2 °F 79% 30.51 in 10.0 mi Calm Calm - N/A   Clear
5:55 PM 15.8 °F - 12.2 °F 86% 30.51 in 10.0 mi Calm Calm - N/A   Clear
6:15 PM 15.8 °F - 12.2 °F 86% 30.51 in 10.0 mi Calm Calm - N/A   Clear
6:35 PM 15.8 °F - 12.2 °F 86% 30.51 in 7.0 mi Calm Calm - N/A   Clear
6:55 PM 15.8 °F - 12.2 °F 86% 30.51 in 10.0 mi Calm Calm - N/A   Clear
7:15 PM 14.0 °F - 12.2 °F 93% 30.50 in 10.0 mi Calm Calm - N/A   Clear
7:35 PM 14.0 °F - 12.2 °F 93% 30.49 in 10.0 mi Calm Calm - N/A   Clear
7:55 PM 14.0 °F - 12.2 °F 93% 30.50 in 10.0 mi Calm Calm - N/A   Clear
8:15 PM 14.0 °F - 12.2 °F 93% 30.50 in 10.0 mi Calm Calm - N/A   Clear
8:35 PM 14.0 °F - 12.2 °F 93% 30.50 in 10.0 mi Calm Calm - N/A   Clear
8:55 PM 14.0 °F - 12.2 °F 93% 30.50 in 10.0 mi Calm Calm - N/A   Clear
9:15 PM 14.0 °F 8.2 °F 12.2 °F 93% 30.50 in 10.0 mi SE 3.5 mph - N/A   Clear
9:35 PM 14.0 °F 8.2 °F 12.2 °F 93% 30.49 in 10.0 mi ESE 3.5 mph - N/A   Clear
9:55 PM 14.0 °F - 12.2 °F 93% 30.49 in 10.0 mi Calm Calm - N/A   Clear
10:15 PM 14.0 °F 8.2 °F 12.2 °F 93% 30.49 in 10.0 mi SSE 3.5 mph - N/A   Clear
10:35 PM 14.0 °F 8.2 °F 12.2 °F 93% 30.48 in 10.0 mi SE 3.5 mph - N/A   Clear
10:55 PM 14.0 °F 8.2 °F 12.2 °F 93% 30.48 in 10.0 mi SSE 3.5 mph - N/A   Clear
11:15 PM 14.0 °F 8.2 °F 14.0 °F 100% 30.47 in 10.0 mi SE 3.5 mph - N/A   Clear
11:35 PM 15.8 °F 7.2 °F 14.0 °F 93% 30.47 in 10.0 mi SE 5.8 mph - N/A   Clear
11:55 PM 17.6 °F 8.2 °F 14.0 °F 86% 30.46 in 10.0 mi SE 6.9 mph - N/A   Scattered Clouds